Simultaneous Nadir Overpasses (SNOs) Predictions

Prediction of SNOs between AQUA and METOP-C Satellite Orbit:

Table of predicted SNOs for the next 14.0 days since TLE Epoch: 4/8/2023
Index Date (AQUA) Time (AQUA) Lat,Lon (AQUA) SZA (AQUA ) Date (METOP-C) Time (METOP-C) Lat,Lon (METOP-C) SZA (METOP-C ) Distance(km) Time Diff (sec)
1 04/09/2023 14:53:12 -73.86, 133.39 113.83 04/09/2023 14:52:04 -73.80, 131.15 113.82 69.54 68
2 04/09/2023 15:42:47 74.34, -60.09 66.67 04/09/2023 15:42:33 74.35, -60.15 66.68 1.89 14
3 04/09/2023 16:32:13 -74.43, 107.34 113.25 04/09/2023 16:33:13 -74.42, 107.35 113.27 1.98 60
4 04/12/2023 09:35:56 74.34, 31.66 65.65 04/12/2023 09:35:35 74.35, 31.60 65.67 2.38 21
5 04/12/2023 10:25:22 -74.43,-160.90 114.28 04/12/2023 10:26:15 -74.42,-160.91 114.29 1.06 53
6 04/15/2023 03:29:04 74.35, 123.37 64.67 04/15/2023 03:28:37 74.35, 123.32 64.66 1.58 27
7 04/15/2023 04:18:30 -74.44, -69.18 115.26 04/15/2023 04:19:17 -74.41, -69.19 115.30 3.31 47
8 04/17/2023 21:22:10 74.38,-144.95 63.72 04/17/2023 21:21:37 74.38,-144.86 63.72 2.92 33
9 04/17/2023 22:11:35 -74.41, 22.63 116.27 04/17/2023 22:12:17 -74.43, 22.62 116.25 2.49 42
10 04/20/2023 15:15:15 74.38, -53.19 62.76 04/20/2023 15:14:39 74.35, -53.19 62.74 3.38 36
11 04/20/2023 16:04:40 -74.41, 114.40 117.23 04/20/2023 16:05:19 -74.40, 114.28 117.23 3.53 39



Historial Predications of SNOs between AQUA and METOP-C
